[[{"header":{"parameterUnit":"m.s-1","parameterCategory":2,"la1":30.2991,"la2":30.254,"lo1":-89.0895,"lo2":-89.0444,"dy":0.0017,"dx":0.0017,"nx":28,"ny":28,"refTime":"2024-08-29T21:00:00:Z","depth":"0","parameterNumber":2,"parameterNumberName":"U-component_of_CURRENTS"},"data":[0,0,0,0,0,0,0,0,0,0,0,0,0,0,0,0,0,0,0,0,0,0,0,0,0,0,0,0,0,0,0,0,0,0,0,0,0,0,0,0,0,0,0,0,0,0,0,0,0,0,0,0,0,0,0,0,0,0,0.2768,0.2768,0,0.277,0.2769,0.2769,0.2765,0.2765,0.2765,0.2765,0.2753,0.2753,0.2752,0,0,0,0,0,0,0,0,0,0,0,0,0,0.2706,0.2708,0.2768,0.2768,0.2768,0.277,0.2769,0.2769,0.2765,0.2765,0.2765,0.2765,0.2753,0.2753,0.2752,0,0,0,0,0,0,0,0,0,0,0,0,0,0.272,0.2708,0.2768,0.2769,0.2769,0.277,0.2769,0.2769,0.2765,0.2765,0.2765,0.2765,0.2754,0.2753,0.2752,0.2743,0,0,0.275,0.275,0,0,0,0,0,0,0,0,0.2719,0.2722,0.2768,0.2769,0.2769,0.277,0.2744,0.2761,0.2765,0.2763,0.2765,0.2766,0.276,0.2758,0.2754,0.2742,0.2742,0.275,0.2749,0.2749,0.2749,0,0,0,0,0,0,0,0.2718,0.2722,0.2765,0.2769,0.2769,0.2751,0.2753,0.2746,0.2757,0.2763,0.2764,0.2769,0.2759,0.2754,0.2753,0.2741,0.275,0.2749,0.2749,0.2749,0.2781,0.2783,0,0,0,0,0,0,0.2728,0.2721,0.2765,0.2766,0.2748,0.2752,0.2755,0.2767,0.2757,0.2757,0.2769,0.2769,0.2755,0.2754,0.2753,0.2789,0.2749,0.2748,0.2748,0.278,0.2782,0.2783,0,0,0,0,0,0,0.2727,0.2732,0.2765,0.2745,0.2749,0.2754,0.2767,0.2767,0.2772,0.2763,0.2761,0.2776,0.2756,0.2754,0.2763,0.2787,0.2748,0.2747,0.2778,0.278,0.2782,0.2832,0,0,0,0,0,0,0.2725,0.2732,0.274,0.2746,0.275,0.2781,0.2767,0.2767,0.2776,0.2776,0.2768,0.2766,0.2756,0.2764,0.2762,0.2785,0.2747,0.2777,0.2779,0.2782,0.2828,0.2835,0.2841,0,0,0,0,0,0.2723,0.2737,0.2741,0.2746,0.2764,0.2783,0.2783,0.2784,0.2776,0.2787,0.2781,0.2767,0.2779,0.2764,0.2762,0.2785,0.2776,0.2779,0.2781,0.2826,0.2834,0.2841,0,0,0,0,0,0,0.2706,0.2738,0.2743,0.2763,0.278,0.2784,0.2792,0.279,0.2792,0.2791,0.2776,0.2775,0.2799,0.2784,0.2768,0.2804,0.2778,0.278,0.2812,0.282,0.2826,0.2833,0.2746,0,0,0,0,0,0.271,0.2735,0.2755,0.2772,0.2784,0.2788,0.2794,0.2797,0.2801,0.2802,0.2795,0.2793,0.2807,0.2806,0.2812,0.282,0.283,0.2837,0.2843,0.2848,0.2854,0.2897,0.2908,0.2793,0.2793,0.2792,0,0,0.2705,0.2728,0.274,0.2772,0.2782,0.2798,0.2792,0.281,0.2821,0.28,0.2809,0.2816,0.2817,0.2837,0.2845,0.2826,0.2888,0.2852,0.2856,0.286,0.2902,0.2913,0.2923,0.2795,0.2794,0.2794,0,0,0.2708,0.2735,0.2754,0.2774,0.2802,0.2809,0.2819,0.283,0.2838,0.285,0.2848,0.287,0.2868,0.2882,0.2887,0.2929,0.2926,0.2932,0.296,0.3002,0.3012,0.302,0.3053,0.3064,0.2927,0.2927,0.2927,0,0.2697,0.2727,0.276,0.2782,0.2797,0.2817,0.2832,0.2846,0.2856,0.2871,0.2861,0.2894,0.2893,0.2932,0.2951,0.2944,0.2964,0.293,0.301,0.3019,0.3027,0.3058,0.307,0.293,0.2929,0.2929,0.2929,0,0.2712,0.2736,0.2751,0.2789,0.2813,0.2831,0.2861,0.2882,0.2892,0.2905,0.2948,0.2954,0.2975,0.2984,0.2978,0.3039,0.3034,0.302,0.2991,0.3042,0.3071,0.3083,0.2934,0.2933,0.2932,0.2931,0,0,0.2674,0.2745,0.2747,0.2767,0.2817,0.2834,0.2874,0.2914,0.2948,0.2963,0.3006,0.3033,0.3045,0.3053,0.3056,0.3088,0.3164,0.3079,0.308,0.3111,0.3259,0.3249,0.326,0.3167,0.3169,0.3171,0.3258,0,0.2666,0.2708,0.2746,0.2777,0.2802,0.2846,0.2884,0.2928,0.2971,0.302,0.3048,0.309,0.3069,0.3092,0.3123,0.3162,0.3196,0.3142,0.3206,0.3207,0.3192,0.3274,0.3187,0.3258,0.3269,0.3271,0.3273,0,0.2652,0.2691,0.272,0.2787,0.2801,0.2825,0.2903,0.2942,0.3029,0.3068,0.312,0.3145,0.3204,0.3177,0.326,0.3228,0.325,0.327,0.3273,0.3254,0.3219,0.3208,0.3278,0.3227,0.329,0.3289,0.3287,0,0.2603,0.2664,0.2687,0.2707,0.2787,0.2815,0.2863,0.2953,0.2993,0.3107,0.3143,0.3222,0.3261,0.3305,0.3343,0.3312,0.3437,0.3394,0.3403,0.3402,0.3336,0.3325,0.3362,0.3457,0.3457,0.3457,0.3456,0,0.2571,0.2587,0.2668,0.268,0.2712,0.2794,0.2842,0.2914,0.3019,0.3076,0.3158,0.3215,0.3297,0.3365,0.3387,0.3445,0.3472,0.3433,0.3436,0.3351,0.3341,0.3297,0.3259,0.346,0.3459,0.3459,0.3458,0,0.25,0.2552,0.2578,0.2663,0.2684,0.271,0.2798,0.2852,0.2963,0.3045,0.3079,0.3225,0.3338,0.3406,0.351,0.35,0.3473,0.3563,0.3458,0.3447,0.3382,0.3349,0.3247,0.314,0.3584,0.3584,0.3585,0,0.2463,0.2474,0.2536,0.255,0.2582,0.2635,0.2677,0.2801,0.2873,0.304,0.3085,0.323,0.3325,0.3483,0.354,0.3608,0.3493,0.3541,0.346,0.3394,0.336,0.3203,0.3108,0.3393,0.3391,0.339,0.339,0,0.2396,0.2415,0.2441,0.2471,0.2505,0.2533,0.262,0.2651,0.2816,0.2899,0.3041,0.3133,0.3333,0.3406,0.3522,0.354,0.3389,0.3521,0.3482,0.3249,0.3052,0.2944,0.3315,0.3381,0.3382,0.3382,0.3383,0.3383,0.2335,0.2332,0.2369,0.2381,0.2412,0.243,0.2423,0.2537,0.2611,0.2726,0.2916,0.3029,0.3249,0.3417,0.3418,0.3411,0.3334,0.3327,0.3306,0.3163,0.3015,0.3371,0.3418,0.342,0.342,0.3421,0.3422,0,0.2265,0.2274,0.2286,0.229,0.2277,0.2328,0.2379,0.237,0.2413,0.2602,0.2716,0.2946,0.3065,0.3214,0.3338,0.3238,0.3044,0.3144,0.2909,0.2833,0.32,0.3149,0.3105,0.3105,0.3105,0.3105,0.3105,0.3105,0.2234,0.2215,0.2215,0.2152,0.2151,0.2098,0.2094,0.2108,0.2216,0.2341,0.2491,0.2663,0.3007,0.3235,0.3238,0.3142,0.2876,0.2744,0.2696,0.2993,0.3008,0.3021,0.2966,0.2884,0.2883,0.2211,0.2206,0.2203]},{"header":{"parameterUnit":"m.s-1","parameterCategory":2,"la1":30.2991,"la2":30.254,"lo1":-89.0895,"lo2":-89.0444,"dy":0.0017,"dx":0.0017,"nx":28,"ny":28,"refTime":"2024-08-29T21:00:00:Z","depth":"0","parameterNumber":3,"parameterNumberName":"V-component_of_CURRENTS"},"data":[0,0,0,0,0,0,0,0,0,0,0,0,0,0,0,0,0,0,0,0,0,0,0,0,0,0,0,0,0,0,0,0,0,0,0,0,0,0,0,0,0,0,0,0,0,0,0,0,0,0,0,0,0,0,0,0,0,0,0.0064,0.0064,0,0.0005,0.0004,0.0004,-0.004,-0.004,-0.004,-0.004,-0.0143,-0.0146,-0.0148,0,0,0,0,0,0,0,0,0,0,0,0,0,0.0094,0.0094,0.0064,0.0064,0.0063,0.0005,0.0004,0.0003,-0.004,-0.004,-0.004,-0.0041,-0.0143,-0.0146,-0.0148,0,0,0,0,0,0,0,0,0,0,0,0,0,0.0062,0.0094,0.0065,0.0035,0.0032,0.0005,0.0004,0.0003,-0.004,-0.004,-0.004,-0.0041,-0.0142,-0.0145,-0.0149,-0.0163,0,0,-0.016,-0.0162,0,0,0,0,0,0,0,0,0.0064,0.0061,0.004,0.0037,0.0034,-0.0009,-0.0023,-0.0054,-0.0039,-0.0013,-0.0041,-0.0041,-0.0102,-0.0109,-0.012,-0.0168,-0.0173,-0.0161,-0.0163,-0.0164,-0.0165,0,0,0,0,0,0,0,0.0066,0.0063,0.004,0.004,0.0036,0.0009,0.0005,-0.0029,-0.0056,-0.0016,-0.0019,-0.0024,-0.0104,-0.0116,-0.0123,-0.0174,-0.016,-0.0164,-0.0166,-0.0168,-0.0242,-0.0242,0,0,0,0,0,0,0.0078,0.0065,0.0042,0.0038,0.0049,0.001,0.0004,0.0004,-0.0055,-0.0064,-0.0023,-0.0025,-0.0109,-0.0118,-0.0126,-0.0139,-0.0164,-0.0168,-0.017,-0.0243,-0.0242,-0.0242,0,0,0,0,0,0,0.0079,0.0077,0.0044,0.0051,0.0045,0.001,0.001,0.0003,-0.0009,-0.006,-0.007,-0.0028,-0.011,-0.0121,-0.0152,-0.0144,-0.017,-0.0173,-0.0243,-0.0242,-0.0242,-0.0171,0,0,0,0,0,0,0.008,0.0078,0.0083,0.0052,0.0045,0.0034,0.001,0.0002,-0.0011,-0.0015,-0.0068,-0.0078,-0.0111,-0.0146,-0.0156,-0.015,-0.0176,-0.0243,-0.0243,-0.0242,-0.0173,-0.0168,-0.0163,0,0,0,0,0,0.0082,0.0096,0.0083,0.008,0.0053,0.0035,0.0029,0.0001,-0.0011,-0.0012,-0.0047,-0.0076,-0.015,-0.0149,-0.016,-0.0155,-0.0243,-0.0243,-0.0242,-0.0176,-0.0169,-0.0163,0,0,0,0,0,0,0.0114,0.0092,0.0078,0.0085,0.0062,0.0028,0.0028,0.0006,-0.0022,-0.0023,-0.0075,-0.0087,-0.011,-0.0143,-0.0141,-0.0176,-0.0201,-0.0203,-0.0146,-0.0141,-0.0136,-0.011,-0.0179,0,0,0,0,0,0.0124,0.0127,0.0097,0.0103,0.0096,0.0061,0.0051,0.0033,0.0004,-0.0008,-0.0046,-0.0085,-0.0116,-0.0136,-0.0169,-0.019,-0.0218,-0.0194,-0.0189,-0.0184,-0.0171,-0.0211,-0.0208,-0.024,-0.024,-0.024,0,0,0.0138,0.0126,0.0128,0.0109,0.0092,0.0092,0.0054,0.0047,0.0045,-0.0015,-0.0028,-0.0068,-0.0117,-0.0137,-0.0151,-0.0165,-0.019,-0.0184,-0.0179,-0.0168,-0.021,-0.0207,-0.0204,-0.024,-0.024,-0.024,0,0,0.0173,0.0159,0.0173,0.0159,0.0138,0.0118,0.0119,0.0087,0.0071,0.0052,0.001,-0.0024,-0.0072,-0.0107,-0.013,-0.0119,-0.016,-0.0129,-0.0085,-0.0124,-0.0121,-0.012,-0.0148,-0.0149,-0.0129,-0.0129,-0.0128,0,0.0192,0.0203,0.0174,0.0182,0.018,0.0135,0.0151,0.0128,0.0089,0.0082,0.0059,-0.0008,-0.0057,-0.0082,-0.0078,-0.0107,-0.0129,-0.0103,-0.0116,-0.0115,-0.0114,-0.0144,-0.0146,-0.0125,-0.0125,-0.0126,-0.0126,0,0.0233,0.024,0.0249,0.0245,0.0239,0.0245,0.0214,0.0202,0.0177,0.0152,0.0124,0.0058,0.002,-0.0005,-0.0039,-0.0055,-0.0072,-0.0102,-0.0127,-0.0106,-0.0139,-0.0143,-0.012,-0.0121,-0.0122,-0.0123,0,0,0.0282,0.0279,0.0282,0.0295,0.0275,0.028,0.0277,0.0266,0.0274,0.0221,0.0223,0.0154,0.0118,0.0089,0.0035,-0.0002,-0.0025,-0.0041,-0.0045,-0.006,-0.0097,-0.0104,-0.0109,-0.0054,-0.0055,-0.0055,-0.012,0,0.0323,0.0356,0.0342,0.0378,0.0396,0.0362,0.0366,0.0349,0.0326,0.0314,0.024,0.022,0.0153,0.0139,0.009,0.0009,-0.0031,-0.0004,-0.0122,-0.0125,-0.0127,-0.0112,-0.0095,-0.0151,-0.0124,-0.0124,-0.0125,0,0.0369,0.0386,0.043,0.045,0.0456,0.0468,0.048,0.0482,0.0447,0.0429,0.039,0.0332,0.027,0.0208,0.0084,0.0108,0.0017,-0.0053,-0.0058,-0.0089,-0.0138,-0.017,-0.0159,-0.0324,-0.0131,-0.013,-0.013,0,0.0425,0.0451,0.0492,0.0497,0.0509,0.0524,0.0531,0.0517,0.0539,0.0507,0.0515,0.0425,0.039,0.0266,0.012,0.0103,-0.0014,-0.0064,-0.0158,-0.016,-0.0181,-0.0183,-0.0335,-0.0154,-0.0154,-0.0154,-0.0153,0,0.0474,0.0508,0.0521,0.0545,0.0596,0.0588,0.0637,0.0631,0.0639,0.0679,0.0583,0.0594,0.0405,0.0311,0.0161,0.0006,0.0012,-0.0139,-0.0175,-0.0155,-0.0155,-0.0328,-0.0432,-0.0156,-0.0156,-0.0155,-0.0155,0,0.0525,0.0531,0.0586,0.0612,0.0625,0.0666,0.0712,0.0753,0.0748,0.0798,0.0796,0.0725,0.0611,0.0418,0.0223,0.0073,-0.0187,-0.0149,-0.0105,-0.0134,-0.038,-0.048,-0.0679,-0.0755,-0.0266,-0.0267,-0.0267,0,0.0553,0.0586,0.064,0.0679,0.0693,0.0744,0.0786,0.0806,0.0867,0.0889,0.0932,0.0839,0.08,0.0517,0.024,-0.002,-0.0197,-0.0189,-0.0231,-0.0382,-0.052,-0.0601,-0.0656,-0.0234,-0.0234,-0.0234,-0.0235,0,0.0611,0.063,0.0674,0.0749,0.0806,0.0874,0.0942,0.1006,0.1046,0.1086,0.1145,0.1118,0.0859,0.0622,0.0261,0.0062,-0.0311,-0.02,-0.0376,-0.0518,-0.0597,-0.0689,-0.0201,-0.0235,-0.0235,-0.0235,-0.0235,-0.0235,0.0657,0.0696,0.0754,0.0826,0.09,0.1003,0.1066,0.1156,0.1258,0.1345,0.132,0.1326,0.0972,0.0494,0.02,-0.0313,-0.0336,-0.047,-0.058,-0.0648,-0.0721,-0.0223,-0.0286,-0.0286,-0.0286,-0.0286,-0.0287,0,0.0709,0.0753,0.0826,0.0917,0.1007,0.1035,0.1172,0.1248,0.1375,0.1481,0.1527,0.1398,0.0938,0.0464,-0.0217,-0.0605,-0.0762,-0.0827,-0.0948,-0.0988,-0.0557,-0.0553,-0.0652,-0.0652,-0.0652,-0.0652,-0.0652,-0.0651,0.0741,0.0815,0.0847,0.0991,0.1059,0.1181,0.1263,0.1386,0.1497,0.1628,0.168,0.1699,0.1376,0.0102,-0.0781,-0.1001,-0.1264,-0.1337,-0.1476,-0.1194,-0.1169,-0.1145,-0.1165,-0.1391,-0.1392,-0.1844,-0.1848,-0.1852]}],[{"header":{"parameterUnit":"m.s-1","parameterCategory":2,"la1":30.2991,"la2":30.254,"lo1":-89.0895,"lo2":-89.0444,"dy":0.0017,"dx":0.0017,"nx":28,"ny":28,"refTime":"2024-08-29T21:00:00:Z","depth":"2","parameterNumber":2,"parameterNumberName":"U-component_of_CURRENTS"},"data":[0,0,0,0,0,0,0,0,0,0,0,0,0,0,0,0,0,0,0,0,0,0,0,0,0,0,0,0,0,0,0,0,0,0,0,0,0,0,0,0,0,0,0,0,0,0,0,0,0,0,0,0,0,0,0,0,0,0,0.2591,0.2592,0,0.2614,0.2614,0.2614,0.2626,0.2627,0.2627,0.2627,0.2636,0.2636,0.2636,0,0,0,0,0,0,0,0,0,0,0,0,0,0.2526,0.2527,0.2591,0.2592,0.2592,0.2614,0.2614,0.2614,0.2626,0.2627,0.2627,0.2627,0.2636,0.2636,0.2636,0,0,0,0,0,0,0,0,0,0,0,0,0,0.2549,0.2528,0.2591,0.2604,0.2605,0.2614,0.2614,0.2614,0.2626,0.2627,0.2627,0.2628,0.2636,0.2636,0.2636,0.2625,0,0,0.2636,0.2636,0,0,0,0,0,0,0,0,0.2548,0.2551,0.2601,0.2603,0.2605,0.2621,0.2594,0.2618,0.2626,0.2615,0.2627,0.2628,0.2632,0.2632,0.263,0.2626,0.2626,0.2636,0.2636,0.2636,0.2636,0,0,0,0,0,0,0,0.2546,0.255,0.2597,0.2602,0.2604,0.2597,0.2601,0.2598,0.2617,0.2616,0.2617,0.2625,0.2632,0.2631,0.2631,0.2626,0.2636,0.2636,0.2636,0.2636,0.2683,0.2685,0,0,0,0,0,0,0.2552,0.2549,0.2596,0.2598,0.2581,0.2598,0.2602,0.2612,0.2617,0.262,0.2625,0.2626,0.263,0.2631,0.2631,0.2679,0.2636,0.2636,0.2636,0.2682,0.2684,0.2685,0,0,0,0,0,0,0.255,0.2556,0.2595,0.2576,0.2581,0.2599,0.261,0.2612,0.2627,0.2625,0.2627,0.2639,0.2631,0.2631,0.265,0.2677,0.2636,0.2635,0.268,0.2682,0.2684,0.2735,0,0,0,0,0,0,0.2548,0.2555,0.2565,0.2577,0.2583,0.2618,0.261,0.2613,0.2632,0.2634,0.2638,0.2638,0.2631,0.265,0.265,0.2676,0.2635,0.2679,0.2681,0.2684,0.2731,0.2738,0.2744,0,0,0,0,0,0.2546,0.2559,0.2566,0.2572,0.2596,0.2619,0.2622,0.2633,0.2632,0.2646,0.265,0.2639,0.2666,0.2651,0.265,0.2677,0.2677,0.2681,0.2683,0.2729,0.2737,0.2744,0,0,0,0,0,0,0.2531,0.2562,0.257,0.259,0.2612,0.2623,0.2637,0.2642,0.2654,0.2657,0.265,0.2651,0.2683,0.2671,0.2654,0.27,0.2672,0.2675,0.2707,0.2715,0.2721,0.2727,0.2635,0,0,0,0,0,0.2535,0.2556,0.2581,0.2599,0.2613,0.2627,0.2638,0.2647,0.2659,0.2665,0.2667,0.2674,0.2691,0.2696,0.2706,0.2721,0.2728,0.274,0.2747,0.2752,0.2758,0.2796,0.2807,0.2695,0.2695,0.2695,0,0,0.2533,0.2554,0.2565,0.2598,0.2615,0.2635,0.2635,0.2661,0.2678,0.2664,0.2687,0.2699,0.2702,0.273,0.2742,0.2723,0.2789,0.2756,0.276,0.2763,0.2801,0.2812,0.2821,0.2697,0.2697,0.2696,0,0,0.2538,0.2563,0.2582,0.2605,0.2639,0.2651,0.2663,0.2685,0.27,0.2723,0.2726,0.2754,0.2763,0.2778,0.2785,0.283,0.2827,0.2836,0.2866,0.2904,0.2913,0.2921,0.295,0.2961,0.2833,0.2833,0.2833,0,0.2533,0.256,0.259,0.2614,0.2634,0.266,0.2681,0.27,0.2724,0.2742,0.274,0.2785,0.2788,0.2829,0.285,0.2845,0.2863,0.2835,0.2912,0.292,0.2928,0.2956,0.2967,0.2836,0.2835,0.2835,0.2835,0,0.2549,0.2575,0.2591,0.263,0.2657,0.2682,0.2716,0.2744,0.2764,0.2781,0.2833,0.2846,0.2873,0.2884,0.288,0.2941,0.2936,0.2921,0.2892,0.2943,0.2968,0.2979,0.284,0.2839,0.2838,0.2837,0,0,0.252,0.2587,0.2592,0.2615,0.2668,0.2689,0.2734,0.2779,0.2817,0.2843,0.2891,0.2925,0.2942,0.2951,0.2958,0.2989,0.3062,0.2981,0.2982,0.3008,0.3148,0.3121,0.3129,0.3064,0.3066,0.3068,0.3146,0,0.2521,0.2563,0.2599,0.2639,0.2665,0.2712,0.2753,0.28,0.2847,0.2901,0.2933,0.2981,0.2965,0.2993,0.3023,0.3059,0.3091,0.3042,0.3096,0.3098,0.3066,0.3141,0.2903,0.2951,0.3156,0.3158,0.3159,0,0.2514,0.255,0.2587,0.2654,0.2671,0.2701,0.2781,0.2824,0.2909,0.2951,0.3006,0.3035,0.3096,0.3073,0.3151,0.3123,0.3143,0.316,0.3163,0.3127,0.309,0.2932,0.2962,0.3177,0.3175,0.3174,0.3173,0,0.2471,0.2535,0.2565,0.2587,0.2667,0.27,0.275,0.2839,0.288,0.2994,0.3032,0.3109,0.3153,0.3193,0.323,0.3202,0.3314,0.3274,0.3265,0.3262,0.3064,0.3041,0.3332,0.3331,0.3331,0.3331,0.3331,0,0.2449,0.2471,0.2551,0.2567,0.2607,0.2686,0.2742,0.2812,0.2914,0.297,0.3053,0.3107,0.3188,0.3251,0.3269,0.3312,0.3347,0.3292,0.3291,0.3076,0.3054,0.3245,0.3234,0.3334,0.3333,0.3333,0.3332,0,0.2388,0.2441,0.2473,0.256,0.2583,0.2616,0.2708,0.2761,0.287,0.2951,0.2987,0.3124,0.3225,0.3289,0.338,0.3361,0.3405,0.3405,0.3151,0.3119,0.3313,0.3304,0.3402,0.3401,0.3401,0.3401,0.3401,0,0.2358,0.2373,0.244,0.2458,0.2495,0.2554,0.2597,0.2718,0.2785,0.2947,0.2987,0.3125,0.3201,0.3333,0.336,0.3407,0.3434,0.3192,0.3094,0.3337,0.3326,0.3316,0.3307,0.2846,0.2842,0.2838,0.2835,0,0.2302,0.2325,0.2354,0.2388,0.2428,0.2459,0.2546,0.2577,0.2733,0.2809,0.2935,0.3012,0.317,0.3137,0.3222,0.3204,0.3168,0.3119,0.3446,0.2876,0.2822,0.2809,0.2816,0.2802,0.2805,0.2807,0.2809,0.2811,0.2251,0.225,0.229,0.2308,0.2344,0.2363,0.2359,0.2463,0.2529,0.2623,0.2791,0.2833,0.2926,0.2943,0.2888,0.2853,0.3057,0.2907,0.2914,0.2926,0.2858,0.2809,0.2772,0.2775,0.2778,0.278,0.2782,0,0.2185,0.2197,0.2213,0.2224,0.2214,0.227,0.2317,0.2301,0.2332,0.2467,0.2551,0.2424,0.2438,0.2511,0.2427,0.2462,0.2389,0.2346,0.2218,0.2256,0.2289,0.2183,0.192,0.1917,0.1914,0.1911,0,0,0.2156,0.2139,0.214,0.2088,0.2096,0.2051,0.2047,0.2044,0.2109,0.2105,0.2125,0.2328,0.2462,0.2152,0.2144,0.2012,0.2103,0.1937,0.2641,0.253,0.2558,0.2644,0.253,0,0,0,0,0]},{"header":{"parameterUnit":"m.s-1","parameterCategory":2,"la1":30.2991,"la2":30.254,"lo1":-89.0895,"lo2":-89.0444,"dy":0.0017,"dx":0.0017,"nx":28,"ny":28,"refTime":"2024-08-29T21:00:00:Z","depth":"2","parameterNumber":3,"parameterNumberName":"V-component_of_CURRENTS"},"data":[0,0,0,0,0,0,0,0,0,0,0,0,0,0,0,0,0,0,0,0,0,0,0,0,0,0,0,0,0,0,0,0,0,0,0,0,0,0,0,0,0,0,0,0,0,0,0,0,0,0,0,0,0,0,0,0,0,0,0.0001,0.0001,0,-0.0052,-0.0053,-0.0053,-0.0092,-0.0092,-0.0092,-0.0092,-0.0189,-0.0191,-0.0193,0,0,0,0,0,0,0,0,0,0,0,0,0,0.0028,0.0028,0.0002,0.0001,0.0,-0.0052,-0.0053,-0.0053,-0.0092,-0.0092,-0.0092,-0.0092,-0.0188,-0.0191,-0.0193,0,0,0,0,0,0,0,0,0,0,0,0,0,-0.0001,0.0028,0.0002,-0.0024,-0.0027,-0.0052,-0.0053,-0.0054,-0.0092,-0.0092,-0.0092,-0.0093,-0.0187,-0.019,-0.0194,-0.0209,0,0,-0.0205,-0.0206,0,0,0,0,0,0,0,0,0.0001,-0.0002,-0.002,-0.0023,-0.0026,-0.0065,-0.0079,-0.0107,-0.0091,-0.0068,-0.0092,-0.0093,-0.015,-0.0157,-0.0167,-0.0213,-0.0217,-0.0205,-0.0207,-0.0209,-0.021,0,0,0,0,0,0,0,0.0003,-0.0,-0.0021,-0.002,-0.0024,-0.0048,-0.0052,-0.0084,-0.0108,-0.007,-0.0073,-0.0077,-0.0152,-0.0163,-0.017,-0.0219,-0.0205,-0.0208,-0.021,-0.0212,-0.0284,-0.0284,0,0,0,0,0,0,0.0014,0.0002,-0.0019,-0.0022,-0.0012,-0.0048,-0.0052,-0.0053,-0.0107,-0.0115,-0.0077,-0.0079,-0.0157,-0.0165,-0.0173,-0.0185,-0.0209,-0.0212,-0.0214,-0.0284,-0.0284,-0.0284,0,0,0,0,0,0,0.0015,0.0013,-0.0017,-0.0011,-0.0016,-0.0047,-0.0047,-0.0053,-0.0064,-0.0111,-0.012,-0.0081,-0.0158,-0.0168,-0.0197,-0.0189,-0.0213,-0.0217,-0.0284,-0.0284,-0.0284,-0.0215,0,0,0,0,0,0,0.0016,0.0014,0.0018,-0.001,-0.0016,-0.0026,-0.0047,-0.0054,-0.0066,-0.0069,-0.0118,-0.0127,-0.0159,-0.0192,-0.0201,-0.0195,-0.0219,-0.0285,-0.0284,-0.0284,-0.0217,-0.0212,-0.0208,0,0,0,0,0,0.0017,0.003,0.0019,0.0016,-0.0009,-0.0025,-0.003,-0.0055,-0.0066,-0.0067,-0.0099,-0.0126,-0.0196,-0.0194,-0.0205,-0.02,-0.0285,-0.0284,-0.0284,-0.022,-0.0213,-0.0208,0,0,0,0,0,0,0.0046,0.0026,0.0013,0.002,-0.0,-0.0031,-0.0031,-0.005,-0.0077,-0.0077,-0.0125,-0.0136,-0.0158,-0.019,-0.0187,-0.022,-0.0244,-0.0246,-0.0192,-0.0187,-0.0182,-0.0158,-0.0222,0,0,0,0,0,0.0054,0.0057,0.0031,0.0036,0.003,-0.0001,-0.001,-0.0026,-0.0052,-0.0064,-0.0099,-0.0135,-0.0165,-0.0183,-0.0214,-0.0234,-0.0263,-0.0238,-0.0233,-0.0229,-0.0217,-0.0256,-0.0254,-0.0282,-0.0282,-0.0282,0,0,0.0068,0.0057,0.0059,0.0042,0.0026,0.0027,-0.0007,-0.0013,-0.0014,-0.0071,-0.0082,-0.0119,-0.0166,-0.0185,-0.0198,-0.0211,-0.0236,-0.0228,-0.0224,-0.0214,-0.0256,-0.0253,-0.025,-0.0282,-0.0282,-0.0282,0,0,0.0099,0.0086,0.01,0.0087,0.0069,0.0052,0.0052,0.0024,0.0009,-0.0008,-0.0046,-0.0079,-0.0124,-0.0156,-0.0178,-0.0168,-0.0208,-0.0177,-0.0136,-0.0174,-0.0172,-0.017,-0.02,-0.0202,-0.0177,-0.0177,-0.0177,0,0.0117,0.0128,0.0101,0.0109,0.0108,0.0067,0.0084,0.0062,0.0027,0.0021,-0.0001,-0.0064,-0.011,-0.0133,-0.0129,-0.0157,-0.0179,-0.0152,-0.0167,-0.0166,-0.0165,-0.0197,-0.0199,-0.0173,-0.0174,-0.0174,-0.0174,0,0.0155,0.0162,0.0171,0.0169,0.0164,0.017,0.0142,0.0132,0.0109,0.0087,0.006,-0.0002,-0.0038,-0.0061,-0.0092,-0.0109,-0.0125,-0.0154,-0.0177,-0.0158,-0.0193,-0.0197,-0.0168,-0.017,-0.0171,-0.0172,0,0,0.0202,0.0199,0.0202,0.0215,0.0198,0.0204,0.0202,0.0192,0.02,0.0151,0.0152,0.0088,0.0055,0.0028,-0.0023,-0.0059,-0.0083,-0.0096,-0.0099,-0.0117,-0.0156,-0.0167,-0.0172,-0.011,-0.0111,-0.0111,-0.0181,0,0.0241,0.0273,0.026,0.0295,0.0312,0.0282,0.0286,0.0271,0.0249,0.0237,0.0168,0.0148,0.0088,0.0074,0.0028,-0.0051,-0.009,-0.0061,-0.0179,-0.0183,-0.0187,-0.0176,-0.0153,-0.0212,-0.0185,-0.0186,-0.0186,0,0.0285,0.0301,0.0343,0.0363,0.0369,0.0382,0.0394,0.0396,0.0361,0.0344,0.0308,0.0253,0.0194,0.0137,0.0016,0.0041,-0.0047,-0.0115,-0.012,-0.0153,-0.02,-0.0229,-0.0221,-0.0193,-0.0193,-0.0192,-0.0192,0,0.0338,0.0363,0.0403,0.0409,0.042,0.0436,0.0443,0.0429,0.0449,0.0418,0.0424,0.0338,0.0304,0.0186,0.0045,0.0032,-0.0087,-0.0132,-0.0226,-0.0228,-0.0243,-0.0245,-0.022,-0.022,-0.0219,-0.0219,-0.0219,0,0.0385,0.0418,0.0431,0.0454,0.0504,0.0496,0.0543,0.0537,0.0543,0.0579,0.0489,0.0495,0.0317,0.0224,0.0081,-0.0072,-0.0065,-0.021,-0.0244,-0.0218,-0.0218,-0.0231,-0.0231,-0.0222,-0.0221,-0.0221,-0.022,0,0.0434,0.044,0.0493,0.0519,0.0531,0.0571,0.0614,0.0652,0.0647,0.0691,0.0688,0.0616,0.05,0.0317,0.0127,-0.0013,-0.017,-0.023,-0.0181,-0.0208,-0.0296,-0.0292,-0.0345,-0.0346,-0.0347,-0.0347,-0.0348,0,0.046,0.0491,0.0545,0.0581,0.0596,0.0645,0.0684,0.0703,0.0756,0.0772,0.0809,0.0714,0.0665,0.0387,0.0128,-0.0121,-0.0161,-0.0271,-0.0304,-0.0279,-0.0308,-0.0303,-0.0298,-0.0301,-0.0301,-0.0301,-0.0301,0,0.0513,0.0533,0.0574,0.0646,0.0701,0.0764,0.0827,0.0884,0.0918,0.0951,0.0994,0.0957,0.0704,0.0465,0.0123,-0.0052,-0.0231,-0.0281,-0.027,-0.0266,-0.0242,-0.0268,-0.0265,-0.0302,-0.0301,-0.0301,-0.0301,-0.0301,0.0555,0.059,0.0645,0.0714,0.0786,0.088,0.0937,0.1015,0.1102,0.1166,0.1134,0.1091,0.0819,0.0395,0.0092,-0.0233,-0.0225,-0.0347,-0.0345,-0.0344,-0.032,-0.0297,-0.0363,-0.0363,-0.0363,-0.0364,-0.0364,0,0.0598,0.0639,0.0708,0.0794,0.0878,0.091,0.1032,0.1092,0.1196,0.1262,0.1286,0.1034,0.0768,0.0452,-0.0022,-0.0307,-0.0336,-0.0403,-0.0373,-0.037,-0.0368,-0.0345,-0.0395,-0.0396,-0.0397,-0.0398,0,0,0.0622,0.0688,0.0718,0.0854,0.0922,0.1036,0.111,0.1202,0.1275,0.1323,0.1311,0.1273,0.089,0.0546,0.0156,-0.0118,-0.0183,-0.0179,-0.0124,-0.0039,-0.0034,-0.0305,-0.0262,0,0,0,0,0]}],[{"header":{"parameterUnit":"m.s-1","parameterCategory":2,"la1":30.2991,"la2":30.254,"lo1":-89.0895,"lo2":-89.0444,"dy":0.0017,"dx":0.0017,"nx":28,"ny":28,"refTime":"2024-08-29T21:00:00:Z","depth":"4","parameterNumber":2,"parameterNumberName":"U-component_of_CURRENTS"},"data":[0,0,0,0,0,0,0,0,0,0,0,0,0,0,0,0,0,0,0,0,0,0,0,0,0,0,0,0,0,0,0,0,0,0,0,0,0,0,0,0,0,0,0,0,0,0,0,0,0,0,0,0,0,0,0,0,0,0,0.1648,0.1649,0,0.1723,0.1724,0.1724,0.179,0.1791,0.1792,0.1793,0.1872,0.1873,0.1874,0,0,0,0,0,0,0,0,0,0,0,0,0,0.1552,0.1553,0.1648,0.1649,0.165,0.1723,0.1724,0.1724,0.179,0.1791,0.1793,0.1794,0.1871,0.1873,0.1874,0,0,0,0,0,0,0,0,0,0,0,0,0,0.1604,0.1553,0.1648,0.1694,0.1699,0.1723,0.1724,0.1725,0.179,0.1791,0.1793,0.1794,0.1871,0.1873,0.1874,0.1855,0,0,0.188,0.188,0,0,0,0,0,0,0,0,0.1601,0.1607,0.1686,0.1691,0.1696,0.1751,0.1719,0.1769,0.179,0.1753,0.1793,0.1795,0.1832,0.1837,0.1844,0.1859,0.1862,0.188,0.1881,0.1882,0.1882,0,0,0,0,0,0,0,0.1597,0.1604,0.1675,0.1687,0.1693,0.1708,0.1716,0.1728,0.1781,0.1756,0.1762,0.1774,0.1835,0.1842,0.1847,0.1863,0.188,0.1881,0.1882,0.1883,0.1989,0.1991,0,0,0,0,0,0,0.1592,0.1601,0.1673,0.1677,0.1654,0.1708,0.1718,0.173,0.1781,0.1791,0.1772,0.1776,0.1839,0.1845,0.185,0.1941,0.1882,0.1883,0.1884,0.1988,0.199,0.1992,0,0,0,0,0,0,0.159,0.1598,0.167,0.1643,0.1654,0.1709,0.1721,0.1731,0.1779,0.1794,0.1804,0.1816,0.184,0.1847,0.19,0.194,0.1884,0.1886,0.1985,0.1988,0.1991,0.2052,0,0,0,0,0,0,0.1587,0.1597,0.1619,0.1643,0.1655,0.1711,0.172,0.1731,0.1783,0.179,0.1834,0.184,0.1842,0.1897,0.1902,0.1942,0.1887,0.1983,0.1987,0.199,0.2047,0.2056,0.2064,0,0,0,0,0,0.1583,0.1602,0.162,0.163,0.1679,0.1713,0.1721,0.1762,0.1784,0.1811,0.1845,0.1841,0.1922,0.19,0.1905,0.1946,0.1982,0.1986,0.199,0.2044,0.2054,0.2063,0,0,0,0,0,0,0.1574,0.1612,0.1631,0.1663,0.17,0.1726,0.1759,0.1782,0.1829,0.1849,0.1859,0.1868,0.1932,0.1929,0.1904,0.1988,0.1953,0.1958,0.1993,0.2003,0.201,0.201,0.1888,0,0,0,0,0,0.1581,0.1609,0.1644,0.1674,0.1696,0.1734,0.176,0.1789,0.1825,0.1849,0.188,0.1913,0.1943,0.1967,0.1991,0.203,0.2031,0.2062,0.207,0.2076,0.208,0.2117,0.2128,0.2005,0.2005,0.2005,0,0,0.1587,0.1612,0.163,0.1676,0.1709,0.1742,0.1754,0.1807,0.1844,0.1848,0.192,0.1946,0.1962,0.2014,0.2041,0.2021,0.2115,0.2082,0.2087,0.2087,0.2122,0.2134,0.2145,0.2008,0.2007,0.2007,0,0,0.16,0.1637,0.1664,0.1697,0.1754,0.1775,0.1799,0.185,0.1889,0.1947,0.1966,0.2017,0.2062,0.2084,0.2097,0.2162,0.2158,0.2179,0.2218,0.2254,0.2264,0.2273,0.2296,0.2307,0.218,0.218,0.218,0,0.161,0.1645,0.1679,0.1712,0.1746,0.1794,0.1831,0.187,0.1936,0.197,0.1984,0.2073,0.2092,0.2148,0.2179,0.2181,0.2198,0.2178,0.2264,0.2272,0.2281,0.2303,0.2313,0.2184,0.2183,0.2183,0.2183,0,0.1633,0.1676,0.1698,0.1753,0.1793,0.1838,0.189,0.1945,0.1996,0.2031,0.2117,0.2149,0.2201,0.222,0.2221,0.2294,0.2287,0.2271,0.2236,0.2297,0.2316,0.2326,0.2188,0.2187,0.2186,0.2185,0,0,0.1614,0.1697,0.1709,0.1747,0.1823,0.1855,0.1925,0.1994,0.205,0.2117,0.2187,0.2249,0.2279,0.2297,0.2314,0.2348,0.2425,0.2343,0.2343,0.2361,0.2507,0.2361,0.2358,0.243,0.2432,0.2433,0.25,0,0.1627,0.169,0.1732,0.1803,0.1841,0.1907,0.1964,0.2036,0.2105,0.2183,0.2234,0.2308,0.2304,0.2349,0.2383,0.2421,0.2454,0.2408,0.245,0.2451,0.2309,0.2365,0.244,0.2507,0.2509,0.2511,0.2512,0,0.163,0.1676,0.1744,0.1834,0.1859,0.1912,0.2019,0.208,0.2187,0.2244,0.2322,0.2366,0.2445,0.2429,0.2514,0.249,0.2509,0.2523,0.2525,0.2371,0.2323,0.2433,0.253,0.2529,0.2527,0.2526,0.2525,0,0.1588,0.1682,0.1739,0.1771,0.1876,0.1932,0.1999,0.2106,0.2164,0.2298,0.2351,0.2443,0.2505,0.2546,0.2585,0.2566,0.2663,0.2631,0.2512,0.2502,0.2587,0.2576,0.2685,0.2684,0.2684,0.2684,0.2684,0,0.1566,0.1617,0.1733,0.1763,0.1837,0.1928,0.2017,0.2099,0.2216,0.2282,0.2387,0.2441,0.2542,0.2602,0.2619,0.2596,0.2691,0.2526,0.2511,0.2612,0.2603,0.2594,0.2583,0.2687,0.2686,0.2686,0.2685,0,0.1504,0.158,0.165,0.1776,0.1818,0.1877,0.2009,0.2069,0.2196,0.2289,0.2336,0.2468,0.2546,0.2615,0.2694,0.2622,0.2627,0.2596,0.2712,0.2702,0.2434,0.2425,0.2457,0.2453,0.2449,0.2446,0.2443,0,0.1473,0.1506,0.1639,0.1682,0.1746,0.1844,0.1905,0.2044,0.2107,0.2278,0.2309,0.2438,0.2507,0.2493,0.2584,0.2604,0.2574,0.2553,0.2474,0.2429,0.2412,0.241,0.2407,0.2437,0.2436,0.2435,0.2434,0,0.1412,0.1474,0.1531,0.1617,0.1693,0.1755,0.1862,0.1884,0.2043,0.2172,0.2225,0.2264,0.2348,0.24,0.2439,0.2446,0.2551,0.2512,0.2519,0.2444,0.2405,0.2391,0.2392,0.242,0.2422,0.2423,0.2424,0,0.1369,0.1388,0.1472,0.1532,0.1618,0.1648,0.171,0.1782,0.185,0.2038,0.2055,0.2192,0.2326,0.232,0.2357,0.2356,0.2312,0.2222,0.2243,0.2259,0.2164,0.2083,0.1992,0,0,0,0,0,0.1317,0.1327,0.138,0.1434,0.1512,0.1562,0.1674,0.1741,0.1885,0.1873,0.1956,0.2025,0.2073,0.2148,0.2107,0.2275,0.2325,0.2217,0.2234,0.2346,0.2361,0.2266,0,0,0,0,0,0,0.1281,0.1328,0.1342,0.1338,0.1359,0.1427,0.1491,0.1591,0.1591,0.1746,0.1786,0.1904,0.1987,0.2078,0.2069,0.2092,0.2061,0.231,0.2305,0.2337,0.2351,0.2363,0.2272,0,0,0,0,0]},{"header":{"parameterUnit":"m.s-1","parameterCategory":2,"la1":30.2991,"la2":30.254,"lo1":-89.0895,"lo2":-89.0444,"dy":0.0017,"dx":0.0017,"nx":28,"ny":28,"refTime":"2024-08-29T21:00:00:Z","depth":"4","parameterNumber":3,"parameterNumberName":"V-component_of_CURRENTS"},"data":[0,0,0,0,0,0,0,0,0,0,0,0,0,0,0,0,0,0,0,0,0,0,0,0,0,0,0,0,0,0,0,0,0,0,0,0,0,0,0,0,0,0,0,0,0,0,0,0,0,0,0,0,0,0,0,0,0,0,0.0009,0.0008,0,-0.003,-0.003,-0.0031,-0.0058,-0.0058,-0.0059,-0.0059,-0.0133,-0.0135,-0.0137,0,0,0,0,0,0,0,0,0,0,0,0,0,0.0026,0.0026,0.0009,0.0008,0.0008,-0.003,-0.003,-0.0031,-0.0058,-0.0058,-0.0059,-0.0059,-0.0133,-0.0135,-0.0137,0,0,0,0,0,0,0,0,0,0,0,0,0,0.0006,0.0026,0.0009,-0.001,-0.0012,-0.003,-0.003,-0.0031,-0.0058,-0.0058,-0.0059,-0.0059,-0.0132,-0.0134,-0.0137,-0.0149,0,0,-0.0146,-0.0147,0,0,0,0,0,0,0,0,0.0007,0.0005,-0.0007,-0.0009,-0.0011,-0.0039,-0.0051,-0.0072,-0.0058,-0.0041,-0.0059,-0.0059,-0.0104,-0.0109,-0.0116,-0.0153,-0.0156,-0.0146,-0.0147,-0.0149,-0.0149,0,0,0,0,0,0,0,0.0009,0.0006,-0.0007,-0.0007,-0.001,-0.0027,-0.003,-0.0055,-0.0072,-0.0043,-0.0045,-0.0048,-0.0106,-0.0114,-0.0118,-0.0157,-0.0146,-0.0148,-0.015,-0.0151,-0.0212,-0.0212,0,0,0,0,0,0,0.0017,0.0008,-0.0006,-0.0008,-0.0002,-0.0027,-0.0031,-0.003,-0.0071,-0.0077,-0.0048,-0.0049,-0.0109,-0.0115,-0.0121,-0.0132,-0.0149,-0.0151,-0.0153,-0.0212,-0.0212,-0.0212,0,0,0,0,0,0,0.0017,0.0016,-0.0004,-0.0001,-0.0005,-0.0027,-0.0027,-0.0031,-0.004,-0.0074,-0.0081,-0.0052,-0.0109,-0.0117,-0.0141,-0.0135,-0.0152,-0.0155,-0.0212,-0.0212,-0.0212,-0.0157,0,0,0,0,0,0,0.0018,0.0016,0.002,0.0,-0.0004,-0.0012,-0.0026,-0.0031,-0.0041,-0.0043,-0.008,-0.0087,-0.011,-0.0137,-0.0144,-0.0139,-0.0157,-0.0212,-0.0212,-0.0212,-0.0159,-0.0156,-0.0152,0,0,0,0,0,0.0019,0.0027,0.002,0.0018,0.0001,-0.0011,-0.0015,-0.0033,-0.0041,-0.0042,-0.0067,-0.0086,-0.0142,-0.0139,-0.0147,-0.0143,-0.0212,-0.0212,-0.0212,-0.0161,-0.0156,-0.0153,0,0,0,0,0,0,0.0036,0.0024,0.0016,0.002,0.0006,-0.0016,-0.0016,-0.003,-0.0051,-0.0052,-0.0087,-0.0095,-0.0114,-0.0138,-0.0134,-0.0162,-0.018,-0.0182,-0.0138,-0.0135,-0.0131,-0.0114,-0.0159,0,0,0,0,0,0.0042,0.0046,0.0027,0.0031,0.0026,0.0005,-0.0002,-0.0013,-0.0034,-0.0042,-0.0069,-0.0097,-0.012,-0.0134,-0.0159,-0.0175,-0.02,-0.0178,-0.0175,-0.0172,-0.0164,-0.0199,-0.0197,-0.0212,-0.0212,-0.0212,0,0,0.0051,0.0044,0.0047,0.0035,0.0024,0.0025,-0.0,-0.0005,-0.0006,-0.0048,-0.0057,-0.0086,-0.0122,-0.0137,-0.0148,-0.0156,-0.0181,-0.0172,-0.0168,-0.0163,-0.0199,-0.0197,-0.0196,-0.0212,-0.0212,-0.0212,0,0,0.0073,0.0064,0.0074,0.0065,0.0053,0.0041,0.0041,0.002,0.0009,-0.0004,-0.0033,-0.0059,-0.0094,-0.0118,-0.0134,-0.0129,-0.0162,-0.0137,-0.0106,-0.0139,-0.0138,-0.0137,-0.0166,-0.0168,-0.0135,-0.0135,-0.0135,0,0.0084,0.0093,0.0075,0.0081,0.0081,0.0052,0.0064,0.0048,0.0022,0.0017,-0.0,-0.005,-0.0084,-0.0102,-0.0099,-0.0121,-0.0141,-0.0116,-0.0134,-0.0134,-0.0134,-0.0163,-0.0166,-0.0132,-0.0133,-0.0133,-0.0133,0,0.011,0.0117,0.0123,0.0124,0.0122,0.0126,0.0107,0.0098,0.0082,0.0065,0.0043,-0.0004,-0.0032,-0.005,-0.0073,-0.0089,-0.0103,-0.0124,-0.014,-0.0129,-0.0161,-0.0165,-0.0129,-0.013,-0.013,-0.0131,0,0,0.0139,0.0142,0.0144,0.0156,0.0146,0.0151,0.0151,0.0144,0.015,0.0112,0.0112,0.0063,0.0037,0.0016,-0.0022,-0.0053,-0.0078,-0.0082,-0.0085,-0.0102,-0.0146,-0.0147,-0.0153,-0.0099,-0.0099,-0.01,-0.0166,0,0.0166,0.0191,0.0186,0.0215,0.0227,0.0208,0.0213,0.0203,0.0187,0.0176,0.0123,0.0107,0.0062,0.0051,0.0012,-0.0053,-0.0087,-0.0058,-0.0161,-0.0163,-0.0161,-0.0157,-0.0101,-0.017,-0.0171,-0.0171,-0.0172,0,0.0195,0.0209,0.0243,0.0264,0.0269,0.0282,0.0293,0.0296,0.027,0.0256,0.0227,0.0185,0.0136,0.0093,-0.001,0.0014,-0.0058,-0.0114,-0.0118,-0.014,-0.0173,-0.0186,-0.018,-0.018,-0.0179,-0.0178,-0.0178,0,0.0228,0.0252,0.0284,0.029,0.0305,0.0321,0.033,0.0321,0.0336,0.0311,0.0314,0.0245,0.0215,0.0119,0.0003,-0.0003,-0.0113,-0.014,-0.0211,-0.0212,-0.0215,-0.0215,-0.0216,-0.0216,-0.0215,-0.0215,-0.0215,0,0.0257,0.0284,0.0303,0.0322,0.0364,0.0363,0.0402,0.0399,0.0405,0.0429,0.0362,0.0359,0.0221,0.0139,0.0025,-0.0099,-0.01,-0.0201,-0.0228,-0.0191,-0.0187,-0.0218,-0.0217,-0.0218,-0.0217,-0.0217,-0.0216,0,0.0282,0.0294,0.0337,0.0367,0.0381,0.0413,0.0456,0.0484,0.0483,0.0512,0.0509,0.0445,0.034,0.0196,0.0037,-0.0061,-0.0188,-0.0236,-0.0174,-0.0198,-0.0271,-0.0267,-0.0319,-0.0319,-0.032,-0.032,-0.0321,0,0.0295,0.0319,0.0373,0.0404,0.0421,0.0465,0.0498,0.0521,0.0557,0.0565,0.0585,0.0501,0.0433,0.0221,0.0058,-0.0159,-0.0196,-0.0265,-0.0279,-0.026,-0.0281,-0.0276,-0.0272,-0.0321,-0.0321,-0.0322,-0.0322,0,0.0319,0.0341,0.0375,0.0438,0.0487,0.0541,0.0592,0.0625,0.0654,0.0656,0.0651,0.0538,0.0418,0.0238,0.0068,-0.009,-0.0222,-0.0271,-0.0272,-0.0285,-0.0264,-0.0284,-0.0278,-0.0323,-0.0323,-0.0323,-0.0323,0,0.0337,0.0362,0.0409,0.0465,0.0534,0.06,0.0622,0.0663,0.0698,0.0709,0.0706,0.0575,0.0501,0.0273,0.012,-0.0038,-0.0088,-0.0148,-0.0156,-0.0156,-0.0096,-0.0045,-0.0054,0,0,0,0,0,0.0347,0.0375,0.043,0.0494,0.0567,0.0607,0.068,0.0698,0.0726,0.0735,0.0725,0.0615,0.0396,0.0306,0.0149,0.0086,-0.0131,-0.0106,-0.0209,-0.0333,-0.0331,-0.029,0,0,0,0,0,0,0.0352,0.0401,0.0426,0.0513,0.056,0.0641,0.0692,0.0712,0.0717,0.0723,0.0617,0.0565,0.0355,0.0486,0.0143,0.0095,0.0006,-0.0207,-0.0211,-0.0334,-0.0332,-0.0331,-0.0287,0,0,0,0,0]}]]